Location: Banska Bystrica
(48.7330°N, 19.1500°E)
Time: 09:44:06
(UTC+01:00)

ISS - Visible Passes

Search period start: 30 November 2023 00:00
Search period end: 10 December 2023 00:00
Orbit: 416 x 417 km, 51.6° (Epoch: 30 November)

Date Brightness Start Highest point End Pass type
(mag) Time Alt. Az. Time Alt. Az. Time Alt. Az.
30 Nov -3.9 17:30:23 10° WNW 17:33:45 79° NNE 17:34:46 42° E visible
30 Nov -0.3 19:07:25 10° W 19:07:41 12° W 19:07:41 12° W visible
01 Dec -3.7 16:41:58 10° WNW 16:45:20 63° NNE 16:48:34 11° E visible
01 Dec -2.3 18:18:50 10° WNW 18:21:30 36° SW 18:21:30 36° SW visible
02 Dec -3.2 17:30:19 10° WNW 17:33:38 57° SSW 17:35:26 24° SE visible
03 Dec -3.7 16:41:48 10° WNW 16:45:11 81° SSW 16:48:32 10° ESE visible
03 Dec -1.3 18:19:09 10° W 18:21:32 18° SW 18:22:28 16° SSW visible
04 Dec -1.7 17:30:16 10° W 17:33:10 27° SW 17:36:03 10° SSE visible
05 Dec -2.4 16:41:32 10° WNW 16:44:43 41° SSW 16:47:53 10° SE visible
06 Dec -0.5 17:30:50 10° WSW 17:32:21 13° SW 17:33:51 10° SSW visible
07 Dec -0.8 16:41:25 10° W 16:43:54 19° SW 16:46:23 10° S visible
